x

8461490 - New London, Ct (nlnc3) Weather Station

8:54 - Sun 29th May 2016 All times are EDT. -4 hours from GMT.

  • Wind
    6mph, 7mph gusts
  • Sea Temp 57°f
  • Air Temp 71°f
  • Sea Pressure 1021.2mb
  • 8461490 - New London, Ct
  • 8461490 - New London, Ct

More Historic Weather Station data

Upgrade to MSW Pro to gain access to the past 30 days of data for over 8000 Wavebouys and Weather Stations around the globe.

Join Pro

Comparision Forecast

View Surf forecast
   
dim. 05/29 8:54 6 7 mph 1021.2mb 57f 71f
8:48 7 8 mph 1021.3mb 57f 71f
8:42 7
mph
1021.4mb 57f 71f
8:36 6 7 mph 1021.3mb 56f 72f
8:30 5
mph
1021.3mb 56f 72f
8:24 5
mph
1021.3mb 56f 71f
8:18 5
mph
1021.2mb 56f 72f
8:12 3
mph
1021.2mb 56f 72f
8:06 3 6 mph 1021.1mb 56f 71f
8:00 3 5 mph 1021.1mb 56f 71f
7:54 3 5 mph 1021.1mb 57f 71f
7:48 5 6 mph 1021mb 58f 70f
7:42 6
mph
1020.9mb 57f 70f
7:36 3 6 mph 1020.9mb 57f 70f
7:30 3 6 mph 1020.9mb 56f 69f
7:24 3 6 mph 1020.8mb 56f 69f
7:18 2 3 mph 1020.7mb 56f 69f
7:12 2 3 mph 1020.6mb 55f 69f
7:06 3 5 mph 1020.6mb 55f 68f
7:00 2 3 mph 1020.5mb 55f 68f
6:54 3 5 mph 1020.5mb 55f 68f
6:48 5
mph
1020.5mb 55f 68f
6:42 5
mph
1020.4mb 55f 67f
6:36 5
mph
1020.4mb 55f 67f
6:30 5
mph
1020.4mb 55f 67f
6:24 3 5 mph 1020.4mb 56f 67f
6:18 3
mph
1020.4mb 56f 66f
6:12 2 3 mph 1020.4mb 56f 66f
6:06 3
mph
1020.3mb 55f 66f
6:00 2 3 mph 1020.3mb 55f 66f
5:54 2 3 mph 1020.3mb 54f 66f
5:48 3 5 mph 1020.3mb 54f 66f
5:42 5 6 mph 1020.4mb 54f 65f
5:36 5 6 mph 1020.4mb 54f 66f
5:30 3 5 mph 1020.3mb 54f 67f
5:24 2 3 mph 1020.2mb 54f 67f
5:18 2 3 mph 1020mb 54f 67f
5:12 3
mph
1020mb 54f 67f
5:06 2 5 mph 1019.9mb 54f 67f
5:00 2 5 mph 1019.9mb 54f 67f
4:54 3 5 mph 1019.8mb 54f 67f
4:48 3 6 mph 1019.7mb 54f 67f
4:42 5
mph
1019.8mb 54f 68f
4:36 5 6 mph 1019.8mb 54f 68f
4:30 3 5 mph 1019.8mb 54f 68f
4:24 2 5 mph 1019.8mb 54f 69f
4:18 3 5 mph 1019.8mb 55f 69f
4:12 2 5 mph 1019.8mb 55f 69f
4:06 3 5 mph 1019.8mb 55f 69f
4:00 2 3 mph 1019.9mb 55f 69f
3:54 3 5 mph 1019.9mb 55f 69f
3:48 2 5 mph 1020mb 55f 69f
3:42 2 3 mph 1020mb 55f 69f
3:36 3 5 mph 1020mb 55f 69f
3:30 3 5 mph 1020mb 55f 69f
3:24 3 5 mph 1020.1mb 55f 69f
3:18 3
mph
1020.1mb 55f 69f
3:12 2 5 mph 1020mb 55f 70f
3:06 3 5 mph 1020.1mb 55f 70f
2:54 2 5 mph 1020.1mb 55f 70f
2:48 2 6 mph 1020.2mb 55f 70f
2:42 3 5 mph 1020.3mb 55f 70f
2:36 3 6 mph 1020.4mb 55f 70f
2:30 2 6 mph 1020.4mb 55f 70f
2:24 3 6 mph 1020.3mb 56f 70f
2:18 3 8 mph 1020.3mb 57f 70f
2:12 5 7 mph 1020.3mb 56f 70f
2:06 6 7 mph 1020.4mb 56f 70f
2:00 3 6 mph 1020.4mb 56f 70f
1:54 3 7 mph 1020.4mb 56f 71f
1:48  -  mph 1020.4mb 57f 71f
1:42  -  mph 1020.4mb 57f 71f
1:36  -  mph 1020.4mb 56f 71f
1:30 6 7 mph 1020.3mb 56f 71f
1:24 6 9 mph 1020.4mb 56f 71f
1:18 5 7 mph 1020.4mb 57f 71f
1:12 3 7 mph 1020.4mb 57f 71f
1:06 5 7 mph 1020.4mb 57f 71f
1:00 3 6 mph 1020.4mb 57f 71f
12:54 5 6 mph 1020.4mb 58f 70f
12:48 5 8 mph 1020.4mb 57f 70f
12:42 5 8 mph 1020.4mb 58f 71f
12:36 5 9 mph 1020.4mb 58f 72f
12:30 5 9 mph 1020.5mb 57f 72f
12:24 6 9 mph 1020.4mb 57f 71f
12:18 6 8 mph 1020.4mb 57f 72f
12:12 6 10 mph 1020.4mb 57f 72f
12:06 6 10 mph 1020.5mb 56f 72f
12:00 5 8 mph 1020.5mb 56f 72f
sam. 05/28 11:54 5 8 mph 1020.5mb 56f 72f
11:48 6 8 mph 1020.5mb 56f 72f
11:42 6 9 mph 1020.5mb 57f 72f
11:36 7 9 mph 1020.4mb 56f 72f
11:30 5 9 mph 1020.4mb 57f 72f
11:24 5 10 mph 1020.4mb 57f 72f
11:18  -  mph 1020.4mb 58f 72f
11:12  -  mph 1020.4mb 59f 72f
11:06  -  mph 1020.3mb 59f 73f
11:00  -  mph 1020.3mb 60f 73f
10:54  -  mph 1020.3mb 60f 73f
10:48 6 9 mph - 60f -
10:42 6 9 mph - 59f -
10:36 7 11 mph - 59f -
10:30 6 9 mph 1020.4mb - -
10:24 7 10 mph 1020.4mb - -
10:18  -  mph 1020.4mb 60f 73f
10:12  -  mph 1020.4mb 60f 73f
10:06  -  mph 1020.4mb 60f 73f
10:00  -  mph 1020.3mb - -
9:54  -  mph 1020.3mb - -
9:48  -  mph - 57f 73f
9:42  -  mph - 57f 74f
9:36  -  mph - 58f 74f
9:30 8 11 mph - - -
9:24 7 11 mph - - -
9:18  -  mph 1020.1mb 57f 74f
9:12  -  mph 1020.1mb 56f 74f
9:06  -  mph 1020mb 58f 74f
9:00  -  mph 1019.9mb - -
8:54  -  mph 1019.8mb - -
8:48  -  mph - 58f -
8:42  -  mph - 58f -
8:36  -  mph - 58f -
8:30 6 8 mph - - -
8:24 3 8 mph - - -
8:18  -  mph 1019.6mb 58f -
8:12  -  mph 1019.6mb 58f -
8:06  -  mph 1019.5mb 57f -
8:00 6 8 mph - - -
7:54 6 7 mph - - -
7:48  -  mph 1019.5mb - -
7:42  -  mph 1019.4mb - -
7:36  -  mph 1019.4mb - -
7:30 7 9 mph 1019.4mb - -
7:24 8 13 mph 1019.4mb - -
7:18  -  mph - 57f 77f
7:12  -  mph - 56f 77f
7:06  -  mph - 56f 77f
7:00 5 13 mph - - -
6:54 9 14 mph - - -
6:48 10 14 mph - - -
6:42 10 14 mph - - -
6:36 6 10 mph - - -
6:30  -  mph 1019.2mb 55f -
6:24  -  mph 1019.2mb 55f -
6:18  -  mph 1019.2mb 55f 76f
6:12  -  mph 1019.1mb 56f 76f
6:06  -  mph 1019.1mb 56f 78f
6:00 5 7 mph - - -
5:54 5 11 mph - - -
5:48  -  mph 1019mb 55f 79f
5:42  -  mph 1019.1mb 56f 78f
5:36  -  mph 1019.1mb 56f 79f
5:30 7 13 mph 1019.1mb 57f 79f
5:18 8 14 mph 1019.2mb 56f 79f
5:12 11 16 mph 1019.3mb 56f 79f
5:06 10 16 mph 1019.3mb 56f 79f
5:00 9 13 mph 1019.3mb 56f 77f
4:54 6 11 mph 1019.3mb 56f 74f
4:48 9 13 mph 1019.3mb 56f 78f
4:42 10 15 mph 1019.2mb 56f 77f
4:36 9 11 mph 1019.2mb 56f 74f
4:30 10 11 mph 1019.2mb 57f 73f
4:24 10 13 mph 1019.1mb 57f 73f
4:18 10 13 mph 1019.1mb 56f 73f
4:12 9 11 mph 1019mb 56f 73f
4:06 11 13 mph 1019.1mb 56f 73f
4:00 11 13 mph 1019mb 56f 73f
3:54 10 13 mph 1019mb 56f 72f
3:48 10 13 mph 1019mb 56f 72f
3:42 11 13 mph 1019mb 56f 71f
3:36 11 13 mph 1019.1mb 56f 72f
3:30 11
mph
1019.1mb 56f 73f
3:24 10 13 mph 1019.1mb 56f 73f
3:18 10 13 mph 1019.1mb 55f 73f
3:12 10 14 mph 1019.2mb 55f 72f
3:06 13 14 mph 1019.2mb 55f 72f
3:00 11 14 mph 1019.2mb 55f 71f
2:54 11 13 mph 1019.2mb 55f 72f
2:48 10 14 mph 1019.3mb 55f 71f
2:42 11 14 mph 1019.2mb 56f 71f
2:36 11 14 mph 1019.3mb 55f 70f
2:30 10 13 mph 1019.3mb 55f 71f
2:24 11 14 mph 1019.4mb 55f 70f
2:18 11 14 mph 1019.5mb 56f 71f
2:12 11 13 mph 1019.5mb 57f 70f
2:06 11 14 mph 1019.5mb 57f 70f
2:00 13 14 mph 1019.5mb 56f 70f
1:54 13 14 mph 1019.5mb 56f 70f
1:48 13 14 mph 1019.4mb 56f 71f
1:42 13 14 mph 1019.4mb 57f 71f
1:36 13 14 mph 1019.5mb 57f 70f
1:30 11 14 mph 1019.5mb 58f 71f
1:24 10 11 mph 1019.5mb 57f 71f
1:18 11 14 mph 1019.6mb 56f 72f
1:12 11 15 mph 1019.6mb 56f 72f
1:06 10 11 mph 1019.7mb 56f 71f
1:00 10 11 mph 1019.7mb 56f 72f
12:54 10 14 mph 1019.8mb 57f 71f
12:48 11 14 mph 1019.8mb 57f 72f
12:42 10 15 mph 1019.9mb 57f 71f
12:36 13 15 mph 1019.9mb 56f 73f
12:30 10 13 mph 1019.9mb 56f 72f
12:24 9 14 mph 1019.9mb 56f 75f
12:18 13 14 mph 1020mb 56f 78f
12:12 8 13 mph 1020mb 57f 74f
12:06 11 14 mph 1020mb 60f 72f
12:00 11 15 mph 1020.1mb 59f 72f
11:54 11 14 mph 1020mb 58f 72f
11:48 10 14 mph 1020.1mb 56f 73f
11:42 11 15 mph 1020.1mb 56f 72f
11:36 11 14 mph 1020.1mb 58f 72f
11:30 9 13 mph 1020.1mb 57f 73f
11:24 8 11 mph 1020.1mb 57f 75f
11:18 8 11 mph 1020mb 55f 77f
11:12 9 14 mph 1020mb 55f 77f
11:00 8 11 mph 1020mb 55f 76f
10:54 9 11 mph 1020mb 55f 76f
10:48 8 10 mph 1020mb 56f 75f
10:42 6 9 mph 1020mb 57f 76f
10:36 5 8 mph 1020.1mb 58f 76f
10:30 8 10 mph 1020.1mb 58f 74f
10:24 7 10 mph 1020.1mb 56f 75f
10:18 7 10 mph 1020.1mb 58f 75f
10:12 7 10 mph 1020.1mb 55f 75f
10:06 8 10 mph 1020.1mb 58f 75f
10:00 6 9 mph 1020.1mb 57f 74f
9:54 6 9 mph 1020mb 56f 74f
9:48 7 10 mph 1020mb 58f 74f
9:42 8 10 mph 1019.9mb 58f 73f
9:36 8 10 mph 1019.9mb 59f 72f
9:24 7 8 mph 1019.9mb 59f 72f
9:18 6 9 mph 1019.9mb 57f 73f
9:12 7 9 mph 1019.9mb 60f 71f
9:06 5 9 mph 1020mb 60f 73f
9:00 5 8 mph 1019.9mb 58f 73f
8:54 5 8 mph 1019.9mb 58f 73f
8:48 7 11 mph 1019.9mb 58f 73f
8:42 7 10 mph 1019.9mb 59f 72f
8:36 5 7 mph 1019.9mb 58f 73f
8:30 6 9 mph 1019.9mb 58f 72f
8:24 5 6 mph 1019.9mb 57f 72f
8:18 5 7 mph 1019.8mb 57f 72f
8:12 1 7 mph 1019.8mb 58f 72f
8:00 1 5 mph 1019.9mb 57f 71f
7:54 3 6 mph 1019.9mb 57f 70f
7:48 2 6 mph 1019.8mb 56f 70f
7:42 5 8 mph 1019.8mb 56f 69f
7:36 3 7 mph 1019.7mb 56f 69f
7:30 3 6 mph 1019.8mb 56f 69f
7:24 1 5 mph 1019.8mb 56f 69f
7:18 2 5 mph 1019.7mb 55f 69f
7:12 5 6 mph 1019.7mb 56f 68f
7:06 2 5 mph 1019.7mb 55f 69f
7:00 2 7 mph 1019.6mb 56f 68f
6:54 1 6 mph 1019.5mb 56f 68f
6:48 2 6 mph 1019.5mb 56f 68f
6:42 3 9 mph 1019.5mb 56f 68f
6:36 1 11 mph 1019.4mb 55f 68f
6:30 5 10 mph 1019.4mb 55f 68f
6:24 3 10 mph 1019.3mb 55f 68f
6:18 6 8 mph 1019.2mb 54f 68f
6:12 6 10 mph 1019.2mb 54f 68f
6:06 8 11 mph 1019.2mb 54f 68f
6:00 8 11 mph 1019.1mb 54f 68f
5:54 7 11 mph 1019mb 54f 68f
5:48 6 9 mph 1018.9mb 54f 68f
5:42 5 11 mph 1018.9mb 54f 68f
5:36 7 13 mph 1018.9mb 55f 68f
5:30 6 10 mph 1018.9mb 55f 68f
5:24 6 10 mph 1018.8mb 55f 68f
5:18 6 10 mph 1018.8mb 55f 68f
5:12 6 10 mph 1018.7mb 54f 68f
5:06 6 9 mph 1018.7mb 55f 68f
5:00 3 10 mph 1018.7mb 55f 67f
4:54 6 10 mph 1018.7mb 54f 67f
4:48 6 11 mph 1018.7mb 54f 67f
4:42 6 10 mph 1018.6mb 54f 67f
4:36 3 9 mph 1018.6mb 54f 67f
4:30 3 7 mph 1018.6mb 54f 67f
4:24 3 7 mph 1018.6mb 54f 67f
4:18 5 9 mph 1018.6mb 55f 67f
4:12 6 8 mph 1018.5mb 54f 67f
4:06 5 9 mph 1018.5mb 54f 67f
4:00 5 7 mph 1018.5mb 54f 67f
3:54 5 9 mph 1018.4mb 54f 67f
3:48 6 8 mph 1018.4mb 54f 67f
3:42 6 8 mph 1018.4mb 54f 67f
3:36 7 11 mph 1018.5mb 54f 67f
3:30 6 10 mph 1018.5mb 54f 67f
3:24 6 10 mph 1018.6mb 54f 67f
3:18 6 9 mph 1018.5mb 54f 67f
3:12 6 8 mph 1018.5mb 54f 67f
3:06 5 8 mph 1018.5mb 54f 67f
3:00 7 10 mph 1018.5mb 54f 67f
2:54 6 10 mph 1018.6mb 55f 67f
2:48 6 9 mph 1018.6mb 54f 67f
2:42 6 7 mph 1018.5mb 54f 65f
2:36 6 8 mph 1018.5mb 55f 65f
2:30 6 7 mph 1018.6mb 54f 65f
2:24 6 7 mph 1018.6mb 54f 65f
2:18  -  mph 1018.6mb 54f 65f
2:06  -  mph 1018.6mb 55f 65f
2:00  -  mph 1018.6mb 55f 66f
1:54  -  mph 1018.6mb 55f 66f
1:48 6 7 mph 1018.6mb 55f 66f
1:42 5 6 mph 1018.6mb 55f 66f
1:36 3 7 mph 1018.6mb 57f 66f
1:30 6 8 mph 1018.6mb 58f 66f
1:24 7 9 mph 1018.5mb 57f 66f
1:18 7 9 mph 1018.6mb 58f 66f
1:12 7 8 mph 1018.6mb 57f 66f
1:06 7 8 mph 1018.6mb 57f 66f
1:00 6 7 mph 1018.6mb 56f 66f
12:54 5 7 mph 1018.6mb 57f 66f
12:48 6 7 mph 1018.6mb 57f 66f
12:42 6 7 mph 1018.7mb 57f 66f
12:36 3 6 mph 1018.8mb 57f 66f
12:30 5 7 mph 1018.8mb 58f 66f
12:24 6
mph
1018.6mb 58f 66f
12:18 5 6 mph 1018.7mb 58f 65f
12:12 3 5 mph 1018.8mb 58f 65f
12:00 3 5 mph 1018.9mb 56f 66f
ven. 05/27 11:54 3 5 mph 1018.8mb 56f 65f
11:48  -  mph 1018.7mb 56f 65f
11:42  -  mph 1018.8mb 55f 65f
11:36  -  mph 1018.8mb 55f 65f
11:30 2 3 mph 1018.7mb 56f 65f
11:24 3 6 mph 1018.8mb 57f 65f
11:18  -  mph 1018.7mb 56f -
11:12  -  mph 1018.6mb 56f -
11:06  -  mph 1018.6mb 56f -
11:00 6
mph
1018.5mb 56f -
10:54 6
mph
1018.4mb 56f -
10:48  -  mph - 57f -
10:42  -  mph - 58f -
10:36  -  mph - 58f -
10:30  -  mph 1018.7mb - -
10:24  -  mph 1018.7mb - -
10:18  -  mph 1018.7mb - 65f
10:12  -  mph 1018.8mb - 64f
10:06  -  mph 1019mb - 65f
10:00 7 8 mph 1018.9mb - -
9:54 6 8 mph 1018.8mb - -
9:48  -  mph 1018.9mb 57f -
9:42  -  mph 1018.9mb 57f -
9:36  -  mph 1018.9mb 57f -
9:30 7 8 mph 1018.8mb 58f -
9:24 8 9 mph 1018.7mb 57f -
9:18  -  mph 1018.7mb 56f -
9:12  -  mph 1018.6mb 58f -
9:06  -  mph 1018.5mb 57f -
9:00 9 10 mph 1018.4mb - -
8:54 9 11 mph 1018.4mb - -
8:48  -  mph 1018.5mb 57f -
8:42  -  mph 1018.4mb 56f -
8:36  -  mph 1018.4mb 56f -
8:30 6 8 mph 1018.4mb 56f -
8:24 6 9 mph 1018.2mb 57f -
8:18  -  mph - 57f 65f
8:12  -  mph - 58f 66f
8:06  -  mph - 57f 66f
8:00  -  mph 1018mb 57f -
7:54  -  mph 1018mb 56f -
7:48  -  mph 1018.1mb 56f -
7:42  -  mph 1018.1mb 56f -
7:36  -  mph 1018.1mb 56f -
7:30 8 10 mph 1018mb 56f -
7:24 9 10 mph 1018.1mb 56f -
7:18  -  mph 1018.1mb 56f 66f
7:12  -  mph 1018.1mb 56f 66f
7:06  -  mph 1018.2mb 56f 66f
7:00 8 10 mph 1018.2mb - -
6:54 8 10 mph 1018.2mb - -
6:48 8 9 mph 1018.3mb - -
6:42 8 11 mph 1018.1mb - -
6:36 8 9 mph 1018.2mb - -
6:30 7 9 mph 1018.1mb 55f -
6:24 8 13 mph 1018.1mb 54f -
6:18  -  mph 1018.2mb 54f -
6:12  -  mph 1018.1mb 55f -
6:06  -  mph 1018.2mb 55f -
6:00  -  mph 1018.1mb - -
5:54  -  mph 1018mb - -
5:48  -  mph 1018mb 55f -
5:42  -  mph 1017.9mb 55f -
5:36  -  mph 1017.9mb 55f -
5:30 9 11 mph 1017.9mb 55f 69f
5:24 9 10 mph 1018mb 55f 69f
5:18 9 10 mph 1018mb 55f 69f
5:12 9 11 mph 1018.1mb 55f 69f
5:06 10 11 mph 1018.1mb 56f 69f
5:00 10 13 mph 1018.1mb 56f 69f
4:54 10 11 mph 1018.1mb 56f 69f
4:48 9 11 mph 1018.1mb 56f 69f
4:42 7 9 mph 1018.2mb 56f 69f
4:36 7 9 mph 1018.2mb 55f 69f
4:30 8 10 mph 1018.1mb 55f 68f
4:24 7 10 mph 1018.1mb 55f 68f
4:18 8 11 mph 1018.1mb 55f 68f
4:12 7 9 mph 1018.1mb 55f 69f
4:06 7 9 mph 1018mb 55f 67f
4:00 9 10 mph 1018.1mb 55f 66f
3:54 8 10 mph 1018.1mb 54f 68f
3:48 8 10 mph 1018.2mb 54f 67f
3:42 7 11 mph 1018.3mb 54f 68f
3:36 10 13 mph 1018.4mb 55f 66f
3:30 10 15 mph 1018.4mb 55f 65f
3:24 13 15 mph 1018.4mb 55f 64f
3:18 9 13 mph 1018.4mb 55f 66f
3:12 10 13 mph 1018.3mb 56f 66f
3:06 10 14 mph 1018.4mb 56f 66f
3:00 13 15 mph 1018.4mb 56f 65f
2:54 10 14 mph 1018.4mb 56f 67f
2:48 11 13 mph 1018.4mb 57f 65f
2:42 10 11 mph 1018.5mb 56f 66f
2:36 9 11 mph 1018.6mb 55f 66f
2:30 9 11 mph 1018.7mb 56f 66f
2:24 9 11 mph 1018.7mb 56f 66f
2:18 10 11 mph 1018.8mb 54f 65f
2:12 9 10 mph 1018.8mb 55f 67f
2:06 8 10 mph 1018.8mb 55f 68f
2:00 8 10 mph 1018.7mb 56f 68f
1:54 8 10 mph 1018.7mb 56f 67f
1:48 8 13 mph 1018.7mb 57f 66f
1:42 10 11 mph 1018.8mb 55f 65f
1:36 10 11 mph 1018.9mb 55f 66f
1:30 9 10 mph 1018.9mb 54f 67f
1:24 8 10 mph 1019mb 55f 68f
1:18 8 11 mph 1019mb 55f 68f
1:12 9 14 mph 1019.1mb 55f 69f
1:06 10 13 mph 1019.1mb 55f 68f
1:00 11 15 mph 1019.1mb 54f 67f
12:54 11 13 mph 1019.1mb 55f 67f
12:48 10 11 mph 1019.2mb 55f 68f
12:42 8 10 mph 1019.1mb 55f 67f
12:36 8 9 mph 1019.1mb 56f 67f
12:30 7 10 mph 1019.2mb 55f 67f
12:24 9 10 mph 1019.3mb 56f 66f
12:18 8 11 mph 1019.4mb 56f 66f
12:12 10 13 mph 1019.4mb 55f 65f
12:06 13 14 mph 1019.4mb 55f 64f
12:00 9 13 mph 1019.4mb 55f 66f
11:54 10 13 mph 1019.4mb 55f 65f
11:48 11 14 mph 1019.4mb 55f 67f
11:42 9 11 mph 1019.2mb 55f 69f
11:36 9 11 mph 1019.1mb 55f 70f
11:30 9 13 mph 1019.1mb 54f 70f
11:24 9 11 mph 1019mb 53f 70f
11:18 9 10 mph 1019mb 54f 70f
11:12 9 10 mph 1019mb 54f 69f
11:06 9 10 mph 1018.9mb 54f 68f
11:00 8 10 mph 1018.8mb 53f 68f
10:54 7 9 mph 1019mb 53f 68f
10:48 6 7 mph 1019mb 53f 67f
10:42 6 8 mph 1019.1mb 53f 67f
10:36 6 8 mph 1019.2mb 53f 66f
10:30 6 8 mph 1019.2mb 53f 66f
10:24 7 8 mph 1019.2mb 53f 66f
10:18 6 8 mph 1019.2mb 54f 66f
10:12 6 7 mph 1019.1mb 54f 65f
10:06 6 7 mph 1019mb 54f 65f
10:00 5 7 mph 1019mb 54f 66f
9:54 7 8 mph 1019.1mb 54f 67f
9:48 6 7 mph 1018.9mb 53f 65f
9:42 6 7 mph 1018.9mb 54f 64f
9:36 6 7 mph 1019mb 54f 65f
9:30 6 7 mph 1019mb 54f 65f
9:24 6 7 mph 1019.1mb 54f 65f
9:18 6 7 mph 1019mb 54f 64f
9:12 6
mph
1019mb 54f 64f
9:06 5 6 mph 1019mb 55f 63f
9:00 5 6 mph 1019mb 56f 64f
8:54 5 6 mph 1019mb 56f 64f
8:48 6 7 mph 1018.9mb 56f 63f
8:42 6 7 mph 1018.8mb 56f 63f
8:36 6 7 mph 1018.9mb 56f 62f
8:30 6 7 mph 1019mb 56f 62f
8:24 5 6 mph 1019mb 56f 63f
8:18 3 5 mph 1019.1mb 57f 63f
8:12 2 3 mph 1019.1mb 56f 63f
8:06 3
mph
1019.1mb 56f 62f
8:00 2 3 mph 1019mb 56f 62f
7:54 3
mph
1019.1mb 56f 62f
7:48 3
mph
1019.1mb 56f 61f
7:42 2 5 mph 1019.2mb 56f 61f
7:36 5
mph
1019.2mb 56f 61f
7:30 3 5 mph 1019.2mb 56f 61f
7:24 3 5 mph 1019.1mb 56f 60f
7:18 3 5 mph 1019.2mb 56f 60f
7:12 3 6 mph 1019.1mb 56f 60f
7:06 3 6 mph 1019.3mb 55f 60f
7:00 5 6 mph 1019.2mb 55f 60f
6:54 3 6 mph 1019.2mb 55f 60f
6:48 5 6 mph 1019.2mb 55f 59f
6:42 5 6 mph 1019.3mb 55f 60f
6:36 5 6 mph 1019.3mb 55f 59f
6:30 5 6 mph 1019.2mb 55f 59f
6:24 5 6 mph 1019.3mb 55f 59f
6:18 5 6 mph 1019.3mb 55f 59f
6:12 5 6 mph 1019.3mb 55f 59f
6:06 3 5 mph 1019.3mb 55f 59f
6:00 3 6 mph 1019.2mb 55f 58f
5:54 5 6 mph 1019.1mb 54f 58f
5:48 3 5 mph 1019.1mb 54f 58f
5:42 5
mph
1019.1mb 54f 58f
5:36 3 5 mph 1019.1mb 54f 58f
5:30 3
mph
1019mb 54f 58f
5:24 2 3 mph 1019mb 54f 58f
5:18 2 5 mph 1019mb 54f 58f
5:12 3 5 mph 1018.9mb 54f 58f
5:06 2 3 mph 1018.9mb 54f 58f
5:00 3 5 mph 1018.8mb 54f 58f
4:54 3 5 mph 1018.8mb 54f 58f
4:48 3 5 mph 1018.8mb 54f 58f
4:42 3 6 mph 1018.8mb 54f 59f
4:36 5 6 mph 1018.8mb 54f 59f
4:30 3 5 mph 1018.9mb 54f 59f
4:24 5
mph
1018.9mb 54f 59f
4:18 3 6 mph 1019mb 54f 59f
4:12 3 5 mph 1018.9mb 54f 59f
4:06 5 6 mph 1018.8mb 54f 59f
4:00 5
mph
1018.8mb 54f 59f
3:54 3 5 mph 1018.8mb 54f 60f
3:48 2 5 mph 1018.7mb 54f 60f
3:42 2 3 mph 1018.7mb 54f 60f
3:36 2 3 mph 1018.6mb 54f 60f
3:30 2 3 mph 1018.7mb 54f 60f
3:24 2 3 mph 1018.6mb 53f 60f
3:18 2 3 mph 1018.7mb 53f 60f
3:12 2 3 mph 1018.7mb 53f 60f
3:06 2 3 mph 1018.7mb 53f 61f
3:00 2
mph
1018.8mb 53f 61f
2:54 2 3 mph 1018.8mb 53f 61f
2:48 1 2 mph 1018.9mb 53f 61f
2:42 2
mph
1018.9mb 53f 61f
2:36 1 3 mph 1018.8mb 53f 61f
2:30 2
mph
1018.8mb 53f 61f
2:24 1 2 mph 1018.7mb 53f 61f
2:18  -  2 mph 1018.6mb 53f 61f
2:12 2
mph
1018.6mb 54f 61f
2:06 1 2 mph 1018.7mb 54f 61f
2:00  -  mph 1018.7mb 54f 61f
1:54  -  mph 1018.8mb 54f 62f
1:48  -  mph 1018.7mb 54f 62f
1:42  -  mph 1018.7mb 54f 62f
1:36  -  mph 1018.7mb 54f 62f
1:30 3
mph
1018.7mb 54f 62f
1:24 2 3 mph 1018.7mb 54f 62f
1:18 2 3 mph 1018.6mb 54f 62f
1:12 2
mph
1018.6mb 55f 62f
1:06 2
mph
1018.6mb 55f 62f
1:00 1 2 mph 1018.6mb 55f 62f
12:54 1 2 mph 1018.6mb 55f 62f
12:48 2
mph
1018.6mb 55f 63f
12:42 2 3 mph 1018.7mb 54f 63f
12:36 3
mph
1018.8mb 54f 63f
12:30 3 5 mph 1018.9mb 54f 63f
12:24 3 5 mph 1019mb 54f 63f
12:18 5 6 mph 1019mb 55f 63f
12:12 5 6 mph 1019mb 55f 64f
12:06 6
mph
1019mb 55f 64f
12:00 3 6 mph 1019mb 55f 64f
jeu. 05/26 11:54 5 6 mph 1018.9mb 55f 63f
11:48  -  mph 1018.9mb 55f 63f
11:36  -  mph 1018.9mb 55f 64f
11:30 6
mph
1019mb 55f 64f
11:24 5 6 mph 1019mb 56f 64f
11:18  -  mph 1019mb 56f -
11:12  -  mph 1019.1mb 56f -
11:06  -  mph 1019.1mb 55f -
11:00  -  mph 1019.1mb 55f -
10:54  -  mph 1019.1mb 55f -
10:48 3 5 mph 1018.9mb - -
10:42 2
mph
1018.9mb - -
10:36 1 5 mph 1018.8mb - -
10:30 3 5 mph - - -
10:24 2 3 mph - - -
10:18  -  mph 1018.8mb 54f 66f
10:12  -  mph 1018.7mb 54f 66f
10:06  -  mph 1018.8mb 54f 66f
9:54  -  mph 1018.8mb - -
9:48  -  mph 1018.8mb - -
9:42  -  mph 1018.8mb - -
9:36  -  mph 1018.7mb - -
9:30 5
mph
1018.6mb - -
9:24 3
mph
1018.6mb - -
9:18  -  mph 1018.5mb 56f -
9:12  -  mph 1018.3mb 56f -
9:06  -  mph 1018.3mb 57f -
9:00  -  mph 1018.2mb - -
8:54  -  mph 1018.1mb - -
8:48  -  mph 1018mb - -
8:42  -  mph 1018mb - -
8:36  -  mph 1017.9mb - -
8:30 6
mph
1017.9mb 56f -
8:24 5 6 mph 1017.8mb 56f -
8:18  -  mph - 56f 71f
8:12  -  mph - 56f 72f
8:06  -  mph - 56f 72f
8:00  -  mph 1017.6mb - -
7:54  -  mph 1017.6mb - -
7:48  -  mph - 55f -
7:36  -  mph - 55f -
7:30 3 6 mph 1017.7mb 55f -
7:24 3 6 mph 1017.8mb 56f -
7:18  -  mph - 56f 74f
7:12  -  mph - 56f 74f
7:06  -  mph - 56f 74f
7:00 6
mph
1017.6mb - -
6:54 6 7 mph 1017.6mb - -
6:48 5 6 mph 1017.6mb - -
6:42 3 6 mph 1017.6mb - -
6:36 5 6 mph 1017.5mb - -
6:30 5 6 mph 1017.5mb 55f -
6:24 5 7 mph 1017.4mb 55f -
6:18  -  mph 1017.4mb 55f 74f
6:12  -  mph 1017.4mb 55f 75f
6:06  -  mph 1017.4mb 55f 75f
6:00 5 8 mph 1017.4mb 55f -
5:54 5 8 mph 1017.5mb 55f -
5:48  -  mph - 55f -
5:42  -  mph - 56f -
5:36  -  mph - 55f -
5:30 7 9 mph 1017.6mb 55f 74f
5:24 8 10 mph 1017.7mb 55f 74f
5:18 6 8 mph 1017.7mb 55f 74f
5:12 7 8 mph 1017.7mb 54f 75f
5:06 6 8 mph 1017.7mb 54f 74f
5:00 7 10 mph 1017.7mb 54f 73f
4:54 8 9 mph 1017.7mb 54f 72f
4:48 7 10 mph 1017.8mb 55f 73f
4:42 8 10 mph 1017.8mb 55f 73f
4:36 8
mph
1017.8mb 55f 73f
4:30 6 9 mph 1017.8mb 55f 75f
4:24 8 11 mph 1017.7mb 55f 74f
4:18 8 9 mph 1017.8mb 55f 74f
4:12 8 10 mph 1017.8mb 55f 74f
4:06 9 11 mph 1017.8mb 54f 73f
4:00 11 13 mph 1017.8mb 54f 73f
3:54 9 10 mph 1017.8mb 53f 74f
3:48 9 13 mph 1017.9mb 53f 73f
3:42 10 13 mph 1017.9mb 53f 73f
3:36 11 13 mph 1017.9mb 53f 73f
3:30 10 11 mph 1017.9mb 53f 74f
3:24 10 11 mph 1017.9mb 53f 75f
3:18 10 11 mph 1017.9mb 53f 75f
3:06 11 13 mph 1017.7mb 53f 76f
3:00 10 11 mph 1017.8mb 53f 76f
2:54 10
mph
1017.9mb 53f 74f
2:48 9 11 mph 1018mb 53f 74f
2:42 11 13 mph 1017.9mb 53f 75f
2:36 11 13 mph 1017.9mb 53f 75f
2:30 11 13 mph 1018mb 53f 75f
2:24 11 13 mph 1018.1mb 54f 75f
2:18 10 13 mph 1018.1mb 54f 75f
2:12 10 11 mph 1018.1mb 54f 75f
2:06 10 13 mph 1018.2mb 54f 76f
2:00 11
mph
1018.3mb 54f 76f
1:54 9 11 mph 1018.4mb 54f 76f
1:48  -  mph 1018.5mb 54f 76f
1:42  -  mph 1018.5mb 54f 76f
1:36  -  mph 1018.6mb 54f 75f
1:30 11 13 mph 1018.6mb 54f 75f
1:24 10 13 mph 1018.6mb 54f 74f
1:18 10 11 mph 1018.6mb 54f 74f
1:12 11 13 mph 1018.6mb 54f 75f
1:06 11 13 mph 1018.7mb 54f 74f
1:00 11
mph
1018.7mb 54f 74f
12:54 9 11 mph 1018.6mb 54f 74f
12:48 10 11 mph 1018.6mb 54f 75f
12:42 10 11 mph 1018.7mb 54f 76f
12:36 9 10 mph 1018.7mb 54f 75f
12:30 10 11 mph 1018.7mb 54f 75f
12:24 10 11 mph 1018.7mb 54f 75f
12:18 11 13 mph 1018.8mb 54f 74f
12:12 11 13 mph 1018.8mb 54f 74f
12:06 10 11 mph 1018.9mb 54f 74f
12:00 10 11 mph 1018.9mb 54f 74f
11:54 10 11 mph 1018.9mb 54f 74f
11:48 10 11 mph 1018.9mb 54f 73f
11:42 10 11 mph 1018.9mb 55f 74f
11:36 10
mph
1018.9mb 55f 73f
11:30 10
mph
1018.9mb 56f 73f
11:24 9 10 mph 1018.9mb 55f 75f
11:18 9 10 mph 1018.9mb 55f 75f
11:12 10
mph
1018.8mb 55f 73f
11:06 10
mph
1018.9mb 54f 72f
11:00 9 10 mph 1018.8mb 54f 73f
10:54 7 9 mph 1018.8mb 54f 75f
10:48 7 9 mph 1018.8mb 54f 75f
10:42 7 8 mph 1018.8mb 53f 74f
10:36 5 7 mph 1018.9mb 53f 76f
10:30 6 7 mph 1018.9mb 53f 75f
10:24 5 7 mph 1018.9mb 53f 73f
10:18 5 6 mph 1018.9mb 53f 73f
10:12 3 6 mph 1019mb 53f 72f
10:06 5 6 mph 1019mb 53f 71f
10:00 5 6 mph 1019mb 53f 71f
9:54 5 6 mph 1019mb 55f 70f
9:48 3 5 mph 1019mb 53f 70f
9:42 5
mph
1019.1mb 53f 69f
9:36 5 6 mph 1019.1mb 53f 69f
9:30 5 6 mph 1019.2mb 53f 69f
9:24 5
mph
1019.3mb 53f 67f
9:18 3
mph
1019.4mb 53f 68f
9:12 2 3 mph 1019.4mb 53f 69f
9:06 1 2 mph 1019.4mb 53f 68f
9:00 2 3 mph 1019.4mb 53f 70f
8:54 1 2 mph 1019.4mb 54f 69f
8:48 2 3 mph 1019.4mb 54f 71f
8:42 3 5 mph 1019.4mb 54f 71f
8:36 5 6 mph 1019.4mb 54f 71f
8:30 3 6 mph 1019.4mb 55f 70f
8:24 3 5 mph 1019.4mb 56f 69f
8:18 3 5 mph 1019.4mb 56f 69f
8:12 2 3 mph 1019.4mb 56f 67f
8:06 2 3 mph 1019.4mb 56f 67f
8:00 2 5 mph 1019.4mb 56f 67f
7:54 3 6 mph 1019.3mb 56f 67f
7:48 3 6 mph 1019.2mb 56f 67f
7:42 5 6 mph 1019.2mb 57f 66f
7:36 2 6 mph 1019.2mb 57f 66f
7:30 3 6 mph 1019.2mb 57f 65f
7:24 3 6 mph 1019.1mb 57f 65f
7:18 5 7 mph 1019.1mb 57f 65f
7:12 6 7 mph 1019.1mb 57f 64f
7:06 3 6 mph 1019mb 57f 64f
7:00 2 3 mph 1019mb 56f 63f
6:54 2 7 mph 1019mb 56f 64f
6:48 6 7 mph 1018.9mb 56f 63f
6:42 6 8 mph 1018.9mb 56f 62f
6:36 7 8 mph 1018.9mb 56f 62f
6:30 7 9 mph 1018.9mb 56f 62f
6:24 7 9 mph 1018.8mb 56f 62f
6:18 7 9 mph 1018.8mb 56f 62f
6:12 6 8 mph 1018.7mb 55f 62f
6:06 3 7 mph 1018.6mb 55f 62f
6:00 6 7 mph 1018.7mb 55f 61f
5:54 6 9 mph 1018.6mb 55f 61f
5:48 6 8 mph 1018.6mb 54f 60f
5:42 8 10 mph 1018.5mb 54f 60f
5:36 7 10 mph 1018.4mb 54f 61f
5:30 7 10 mph 1018.3mb 55f 60f
5:24 7 10 mph 1018.3mb 55f 60f
5:18 7 9 mph 1018.2mb 55f 61f
5:12 6 8 mph 1018.2mb 55f 61f
5:06 6 7 mph 1018.2mb 55f 61f
5:00 6 8 mph 1018.1mb 55f 61f
4:54 6 8 mph 1018mb 55f 61f
4:48 6 8 mph 1018mb 55f 61f
4:42 6 7 mph 1018mb 54f 61f
4:36 6 8 mph 1017.9mb 55f 61f
4:30 6 7 mph 1017.9mb 54f 61f
4:24 6 7 mph 1017.8mb 54f 61f
4:18 6 7 mph 1017.8mb 55f 61f
4:12 5 7 mph 1017.7mb 54f 61f
4:06 6 7 mph 1017.8mb 54f 61f
4:00 5 7 mph 1017.7mb 54f 61f
3:54 5 6 mph 1017.6mb 54f 61f
3:48 5 7 mph 1017.5mb 54f 61f
3:42 6 7 mph 1017.5mb 54f 61f
3:36 5 6 mph 1017.5mb 54f 61f
3:30 3 6 mph 1017.4mb 54f 61f
3:24 3 5 mph 1017.4mb 54f 61f
3:18 3 6 mph 1017.4mb 54f 62f
3:12 5
mph
1017.4mb 54f 62f
3:00 1 3 mph 1017.5mb 54f 62f
2:54 2
mph
1017.4mb 54f 62f
2:48 2
mph
1017.4mb 53f 62f
2:42 1 2 mph 1017.4mb 53f 62f
2:36  -  1 mph 1017.4mb 53f 63f
2:30  -  2 mph 1017.4mb 53f 63f
2:24 1 3 mph 1017.3mb 53f 63f
2:18 2 3 mph 1017.2mb 53f 63f
2:12 2
mph
1017.2mb 53f 63f
2:06  -  2 mph 1017.2mb 53f 63f
2:00 3 5 mph 1017.2mb 53f 63f
1:54 3 5 mph 1017.1mb 53f 64f
1:48 3 5 mph 1017.1mb 53f 64f
1:42  -  2 mph 1017.1mb 53f 64f
1:36 1
mph
1017.2mb 53f 64f
1:30  -  1 mph 1017.2mb 53f 65f
1:24 1 2 mph 1017.2mb 53f 65f
1:18 1 2 mph 1017.2mb 53f 65f
1:12 1
mph
1017.1mb 53f 64f
1:06 1 2 mph 1017.1mb 53f 65f
1:00 2 3 mph 1017mb 53f 65f
12:54 1 2 mph 1017mb 53f 65f
12:48 2 5 mph 1017mb 53f 65f
12:42 2 5 mph 1017.1mb 53f 65f
12:36 3 5 mph 1017.1mb 53f 65f
12:30 2 6 mph 1017mb 53f 66f
12:24 2 5 mph 1017mb 53f 67f
12:18  -  1 mph 1017mb 53f 67f
12:12 1 3 mph 1017mb 53f 66f
12:06 2 3 mph 1017mb 53f 67f
12:00 1 2 mph 1016.9mb 53f 67f
mer. 05/25 11:54  -  3 mph 1016.9mb 54f 67f
11:48  -  mph 1016.9mb 54f 67f
11:42  -  mph 1017mb 54f 68f
11:36  -  mph 1017mb 54f 68f
11:30 1 2 mph 1016.9mb 54f 70f
11:24 1 5 mph 1016.9mb 55f 70f
11:18  -  mph 1016.9mb 55f 71f
11:12  -  mph 1016.9mb 55f 71f
11:06  -  mph 1016.9mb 54f 71f
11:00  -  mph - 54f 71f
10:54  -  mph - 54f 71f
10:48  -  mph - 54f 72f
10:42  -  mph - 55f 72f
10:36  -  mph - 55f 72f
10:30 3 8 mph 1017.1mb 55f -
10:24 5 7 mph 1017.3mb 55f -
10:18  -  mph 1017.3mb 55f 72f
10:12  -  mph 1017.3mb 56f 72f
10:06  -  mph 1017.2mb 55f 72f
10:00 2 6 mph 1017.2mb 55f -
9:54 3 7 mph 1017.1mb 55f -
9:48  -  mph 1017.1mb 55f -
9:42  -  mph 1017.1mb 55f -
9:36  -  mph 1017.2mb 54f -
9:30 9 14 mph 1017.3mb - -
9:24 8 11 mph 1017.2mb - -
9:18 6 10 mph 1017.1mb 55f -
9:12 6 10 mph 1016.9mb 55f -
9:06 6 10 mph 1016.8mb 55f -
9:00  -  mph 1016.7mb 55f -
8:54  -  mph 1016.6mb 54f -
8:48  -  mph 1016.5mb 54f -
8:42  -  mph 1016.5mb 54f -
8:36  -  mph 1016.4mb 54f -
8:30 3 6 mph 1016.3mb 54f -
8:24 2 3 mph 1016.2mb 55f -
8:18  -  mph 1016.2mb 55f 75f
8:12  -  mph 1016.2mb 55f 75f
8:06  -  mph 1016.2mb 56f 76f
8:00 3 6 mph 1016.2mb 57f -
7:54 6 7 mph 1016.3mb 56f -
7:48 6 8 mph - 56f -
7:42 6 8 mph - 56f -
7:36 5 8 mph - 55f -
7:30 5 6 mph 1015.9mb 55f -
7:24 5 8 mph 1015.9mb 56f -
7:18  -  mph 1016mb 56f 81f
7:12  -  mph 1016mb 56f 81f
7:06  -  mph 1016mb 55f 82f
6:54  -  mph 1015.9mb 55f -
6:48 6 11 mph 1015.9mb - -
6:42 8 13 mph 1015.9mb - -
6:36 10 16 mph 1015.8mb - -
6:30 7 14 mph 1015.7mb - -
6:24 7 13 mph 1015.7mb - -
6:18 7 13 mph 1015.8mb 55f 83f
6:12 10 16 mph 1015.7mb 55f 83f
6:06 9 14 mph 1015.6mb 55f 83f
6:00 8 17 mph 1015.7mb 55f -
5:54 10 16 mph 1015.7mb 54f -
5:48  -  mph 1015.7mb - -
5:36  -  mph 1015.6mb - -
5:30 6 13 mph 1015.8mb 54f 83f
5:24 8 14 mph 1015.8mb 54f 83f
5:18 8 14 mph 1015.8mb 54f 83f
5:12 7 13 mph 1015.8mb 55f 83f
5:06 8 16 mph 1015.8mb 55f 84f
5:00 8 14 mph 1015.8mb 55f 84f
4:54 10 16 mph 1015.8mb 55f 84f
4:48 9 15 mph 1015.8mb 54f 83f
4:42 15 20 mph 1015.8mb 53f 83f
4:36 15 20 mph 1015.8mb 54f 83f
4:30 9 17 mph 1015.7mb 54f 84f
4:24 7 18 mph 1015.7mb 54f 84f
4:18 11 16 mph 1015.6mb 54f 83f
4:12 8 16 mph 1015.5mb 55f 84f
4:06 11 17 mph 1015.6mb 55f 83f
4:00 8 15 mph 1015.6mb 54f 84f
3:54 10 18 mph 1015.6mb 54f 83f
3:48 9 14 mph 1015.7mb 54f 83f
3:42 7 10 mph 1015.7mb 54f 82f
3:36 10 14 mph 1015.6mb 54f 82f
3:30 9 15 mph 1015.6mb 54f 81f
3:24 9 15 mph 1015.7mb 54f 80f
3:18 8 14 mph 1015.7mb 54f 81f
3:12 9 14 mph 1015.8mb 54f 81f
3:06 9 14 mph 1015.8mb 54f 81f
3:00 8 11 mph 1015.9mb 54f 80f
2:54 8 11 mph 1015.9mb 54f 80f
2:48 7 14 mph 1015.9mb 54f 79f
2:42 7 14 mph 1015.9mb 53f 80f
2:36 8 11 mph 1015.8mb 53f 79f
2:24 9 14 mph 1015.9mb 53f 78f
2:18 8 11 mph 1015.8mb 53f 78f
2:12 9 15 mph 1015.9mb 53f 77f
2:06 9 14 mph 1015.9mb 53f 78f
2:00 10 14 mph 1016mb 53f 78f
1:54 9 16 mph 1015.9mb 53f 79f
1:48 9 14 mph 1016mb 53f 79f
1:42 9 13 mph 1015.9mb 53f 79f